Home   Weather   Sumqayit   Past weeks

Flag for Azerbaijan Past Weather in Sumqayit, Azerbaijan — Yesterday and Last 2 Weeks

Now
41 °F

Overcast.


Feels Like: 35 °F
Forecast: 36 / 40 °F
Wind: 9 mph from North

Location: Baku / Bine Airport

Current Time: Jan 19, 2017 at 10:40:57 am

Latest Report: Jan 19, 2017 at 10:00 am


Visibility: N/A

Pressure: 30.36 "Hg

Humidity: 87%

Dew Point: 37 °F

Location of SumqayitLocation

Past Weather in Sumqayit — Graph

°F

Sumqayit Temperature Yesterday

Maximum temperature yesterday: 45 °F (at 12:00 pm)
Minimum temperature yesterday: 41 °F (at 12:00 am)
Average temperature yesterday: 42 °F

High & Low Weather Summary for the Past Weeks

 TemperatureHumidityPressure
High54 °F (Jan 6, 2:30 pm)100% (Jan 6, 7:30 pm)30.39 "Hg (Jan 6, 7:30 pm)
Low34 °F (Jan 4, 9:00 am)38% (Jan 6, 3:30 pm)29.77 "Hg (Jan 8, 6:00 am)
Average43 °F84%30.14 "Hg
* Reported Jan 4 9:00 am — Jan 19 9:30 am, Sumqayit, Weather by CustomWeather, © 2017

Note: Actual official high and low records may vary slightly from our data, if they occured in-between our weather recording intervals... More about our weather records

Advertising

Sumqayit Weather History for the Previous 24 Hours

Scroll right to see more
 ConditionsComfort  
Time TempWeatherWind HumidityBarometerVisibility
9:30 am
Thu, Jan 19
41 °FOvercast.8 mph87%30.33 "HgN/A
9:00 am39 °FOvercast.7 mph93%30.33 "HgN/A
8:30 am39 °FLight rain. More clouds than sun.6 mph93%30.33 "HgN/A
8:00 am39 °FLight rain. More clouds than sun.5 mph93%30.33 "HgN/A
7:30 am39 °FOvercast.7 mph93%30.33 "HgN/A
7:00 am39 °FOvercast.7 mph93%30.30 "HgN/A
6:30 am39 °FOvercast.5 mph93%30.30 "HgN/A
6:00 am41 °FOvercast.7 mph87%30.30 "HgN/A
5:30 am39 °FOvercast.7 mph93%30.30 "HgN/A
5:00 am39 °FOvercast.7 mph93%30.30 "HgN/A
4:30 am39 °FOvercast.8 mph87%30.30 "HgN/A
4:00 am41 °FMostly cloudy.9 mph87%30.30 "HgN/A
3:30 am41 °FLight rain. Mostly cloudy.9 mph93%30.30 "HgN/A
3:00 am41 °FLight rain. Mostly cloudy.10 mph93%30.30 "HgN/A
2:30 am41 °FLight rain. Mostly cloudy.10 mph93%30.30 "HgN/A
2:00 am41 °FMostly cloudy.12 mph93%30.30 "HgN/A
1:30 am41 °FMostly cloudy.12 mph93%30.30 "HgN/A
1:00 am41 °FMostly cloudy.10 mph93%30.30 "HgN/A
12:30 am41 °FMostly cloudy.8 mph93%30.30 "HgN/A
12:00 am41 °FMostly cloudy.8 mph93%30.33 "HgN/A
11:30 pm
Wed, Jan 18
41 °FLight rain. Mostly cloudy.10 mph93%30.33 "HgN/A
11:00 pm43 °FLight rain. Mostly cloudy.10 mph87%30.33 "HgN/A
10:30 pm43 °FMostly cloudy.10 mph87%30.33 "HgN/A
10:00 pm43 °FMostly cloudy.12 mph87%30.33 "HgN/A
9:30 pm43 °FMostly cloudy.12 mph87%30.33 "HgN/A
9:00 pm43 °FMostly cloudy.10 mph87%30.33 "HgN/A
8:30 pm43 °FMostly cloudy.12 mph87%30.33 "HgN/A
8:00 pm43 °FMostly cloudy.10 mph87%30.33 "HgN/A
7:30 pm43 °FMostly cloudy.9 mph87%30.33 "HgN/A
7:00 pm43 °FMostly cloudy.9 mph87%30.33 "HgN/A
6:30 pm43 °FMostly cloudy.10 mph87%30.30 "HgN/A
6:00 pm43 °FMostly cloudy.8 mph87%30.30 "HgN/A
5:30 pm43 °FMore clouds than sun.9 mph87%30.30 "HgN/A
5:00 pm43 °FMore clouds than sun.8 mph87%30.30 "HgN/A
4:30 pm43 °FMore clouds than sun.9 mph87%30.30 "HgN/A
4:00 pm45 °FMore clouds than sun.9 mph81%30.30 "HgN/A
3:30 pm45 °FMostly cloudy.10 mph81%30.30 "HgN/A
3:00 pm45 °FMore clouds than sun.10 mph81%30.30 "HgN/A
2:30 pm45 °FMore clouds than sun.10 mph81%30.30 "HgN/A
2:00 pm45 °FBroken clouds.12 mph81%30.30 "HgN/A
1:30 pm45 °FBroken clouds.10 mph76%30.30 "HgN/A
1:00 pm43 °FPartly sunny.10 mph87%30.33 "HgN/A
12:30 pm45 °FPartly sunny.10 mph81%30.33 "HgN/A
12:00 pm45 °FBroken clouds.12 mph81%30.33 "HgN/A
11:30 am43 °FPartly sunny.12 mph87%30.36 "HgN/A
11:00 am43 °FPartly sunny.14 mph87%30.36 "HgN/A
10:30 am43 °FPartly sunny.10 mph87%30.36 "HgN/A
10:00 am43 °FBroken clouds.12 mph87%30.36 "HgN/A
Weather by CustomWeather, © 2017

See weather overviewHow to use our weather pages